map of SBW home
Great Circle Mapper logo
SBW - Airport
Location
City:  Sibu, Sarawak, Malaysia
ICAO:WBGS
IATA:SBW

Details
Type:Airport (Aerodrome, Airfield)
Use:Public/Civil
Latitude:2°15'42"N (2.261603)
Longitude:111°59'07"E (111.985322)
Datum:WGS 1984
Elevation:122 ft (37 m)
Variation:0.32°E (WMM2015 magnetic declination)
-0.06° annual change
Runways:1
Longest:9036 × 148 ft (2754 × 45 m), paved

Time
Time Zone:UTC+8
Local Time:

Weather
METAR:WBGS 310500Z 33009KT 1500 SHRA BKN016 BKN150 24/22 Q1009
TAF:WBGS 302300Z 3100/3124 14005KT 9999 FEW018 BKN150
TEMPO 3108/3112 4000 SHRA FEW015CB SCT018 BKN150

Related Locations
Nearby:
Farthest:OLC: 12332 mi / 19847 km
São Paulo de Olivença [Senadora Eunice Michiles], AM, BR

Find:

   beyond  
but within

Other Information
Maps:
NOTAMs:
Links:
Sources:

  
flag of Malaysia
flag of Sarawak
  

Sectional Chart

Flight Planning
at skyvector.com

Satellite Image

Google Maps Satellite view

 

Copyright © 2004-2016 Karl L. Swartz. All rights reserved.
The Great Circle Mapper name and logo are trademarks of the Great Circle Mapper.
All other trademarks mentioned herein belong to their respective owners.
Please see credits for attibutions and further copyright information.

  Follow gcmap on Facebook Follow gcmap on Twitter Follow gcmap on Google+ GCmap on LinkedIn

hCard Microformat

Geo Microformat